Location: Karcze
(52.0945°N, 22.4786°E)
Time: 12:19:22
(UTC+00:00)

Gbstr 26 Del rocket - Pass Details

Date: 14 July 2020
Orbit: 492 x 1264 km, 51.8° (Epoch: 08 August)

Event Time Altitude Azimuth Distance (km) Brightness Sun altitude
Rises 01:39:51 0° 284° (WNW) 2,716 6.1 -6.1°
Reaches altitude 10° 01:42:09 10° 272° (W) 1,896 5.2 -5.9°
Maximum altitude 01:45:50 28° 213° (SSW) 1,205 4.0 -5.5°
Drops below altitude 10° 01:50:07 10° 155° (SSE) 2,231 5.7 -5.0°
Sets 01:53:03 0° 145° (SE) 3,299 6.7 -4.7°
